Terug naar catalogus

CZ-3C DEB

ActiefHEO
NORAD 42477·DEBRIS·🇨🇳 China

Gelanceerd Feb 24, 2012 vanaf Xichang Satellite Launch Center

Loading…

Volgende Passages (komende 24 uur)

TLE

VersSource: Space-Track

Epoch: Sep 11, 2026, 16:36 UTC

1 42477U 12008AM  26254.69221156  .00005940  00000-0  94308-2 0  9990
2 42477  20.1059 347.3990 6917259 221.3954  57.6366  2.67759360108246

Volg CZ-3C DEB in realtime met AllMySat

Download on the App Store